Regional Weather Roundup
Issued by NWS

Home | Current Version | Previous Version | Graphics & Text | Print | Product List | Glossary On
Versions: 1 2 3 4 5 6 7 8 9 10 11 12 13 14 15 16 17 18 19 20 21 22 23 24 25 26 27 28 29 30 31 32 33 34 35 36 37 38 39 40 41 42 43 44 45 46 47 48 49 50
000
ASUS43 KLSX 201457
RWRMO

WEATHER SUMMARY FOR MISSOURI
NATIONAL WEATHER SERVICE SPRINGFIELD MO
1000 AM CDT THU JUL 20 2017

NOTE: "FAIR" INDICATES FEW OR NO CLOUDS BELOW 12,000 FEET WITH NO
       SIGNIFICANT WEATHER AND/OR OBSTRUCTIONS TO VISIBILITY.
       CURRENT SKY AND/OR WEATHER CONDITIONS ARE NOT AVAILABLE FOR
       CHILLICOTHE AND FARMINGTON.

MOZ001>031-035>038-043-044-053-054-201600-
...NORTHERN AND WESTERN MISSOURI...

CITY           SKY/WX    TMP DP  RH WIND       PRES   REMARKS
KANSAS CTY INT MOSUNNY   86  74  67 SW16      30.03F HX  94
LEE`S SUMMIT   SUNNY     88  73  61 SW17      30.06S HX  95
ST JOSEPH      SUNNY     85  77  77 S9        30.00F HX  95
CHILLICOTHE      N/A     84  76  76 SW6       30.03S HX  93

$$
MOZ066>068-077>081-088>096-101>105-201600-
...SOUTHWEST MISSOURI...

CITY           SKY/WX    TMP DP  RH WIND       PRES   REMARKS
SPRINGFIELD    SUNNY     87  74  64 SW17      30.13F HX  95
JOPLIN         SUNNY     90  75  61 SW15      30.11S HX 100
BRANSON        SUNNY     86  73  66 SW5       30.16S HX  93

$$
MOZ032>034-039>042-045>050-055>058-069>072-201600-
...CENTRAL MISSOURI...

CITY           SKY/WX    TMP DP  RH WIND       PRES   REMARKS
COLUMBIA       NOT AVBL
JEFFERSON CITY SUNNY     87  75  67 W8        30.08S HX  96
ROLLA          SUNNY     84  73  69 SW8       30.12S HX  90
SEDALIA        SUNNY     87  76  69 SW10G18   30.09R HX  97
WARRENSBURG    SUNNY     86  72  62 SW9       30.06S HX  92

$$
MOZ051-052-059>065-201600-
...EAST CENTRAL MISSOURI...

CITY           SKY/WX    TMP DP  RH WIND       PRES   REMARKS
ST LOUIS INTL  CLOUDY    91  71  51 W7        30.10R HX  97

$$
MOZ072>076-082>087-097>100-106>115-201600-
...SOUTH CENTRAL AND SOUTHEAST MISSOURI...

CITY           SKY/WX    TMP DP  RH WIND       PRES   REMARKS
CAPE GIRARDEAU CLOUDY    85  75  72 W7        30.12R HX  93
POPLAR BLUFF   SUNNY     87  77  72 W6        30.11F HX  99
WEST PLAINS    SUNNY     86  72  62 W8        30.16S HX  92

$$



USA.gov is the U.S. government's official web portal to all federal, state and local government web resources and services.